This is the latest recevied weather packets stored in our database for station/object HB9FHL-13. If no packets are shown the sender has not sent any weather packets the latest 10 day(s).
| Time | Temp. | Humidity | Pressure | Rain* | Wind** | Luminosity | Snow |
|---|---|---|---|---|---|---|---|
| 1788305559 | 18.89° C | - | 1023 hPa | 0 mm | - | - | - |
| 1788305259 | 18.33° C | - | 1022.8 hPa | 0 mm | - | - | - |
| 1788305050 | 18.89° C | - | 1024.9 hPa | 0 mm | - | - | - |
| 1788304958 | 18.89° C | - | 1024.9 hPa | 0 mm | - | - | - |
| 1788304670 | 18.33° C | - | 1024.2 hPa | 0 mm | - | - | - |
| 1788304357 | 18.33° C | - | 1022.6 hPa | 0 mm | - | - | - |
| 1788304057 | 18.89° C | - | 1023.8 hPa | 0 mm | - | - | - |
| 1788303756 | 18.89° C | - | 1023.6 hPa | 0 mm | - | - | - |
| 1788303456 | 18.33° C | - | 1023.2 hPa | 0 mm | - | - | - |
| 1788303205 | 17.78° C | - | 1022.5 hPa | 0 mm | - | - | - |
| 1788303155 | 17.78° C | - | 1022.5 hPa | 0 mm | - | - | - |
| 1788302855 | 18.89° C | - | 1024.4 hPa | 0 mm | - | - | - |
| 1788302551 | 18.33° C | - | 1023.7 hPa | 0 mm | - | - | - |
| 1788302251 | 19.44° C | - | 1023.7 hPa | 0 mm | - | - | - |
| 1788301950 | 18.89° C | - | 1024.5 hPa | 0 mm | - | - | - |
| 1788301650 | 18.89° C | - | 1023.3 hPa | 0 mm | - | - | - |
| 1788301349 | 18.33° C | - | 1022.2 hPa | 0 mm | - | - | - |
| 1788301049 | 18.33° C | - | 1022.2 hPa | 0 mm | - | - | - |
| 1788300801 | 18.33° C | - | 1025.1 hPa | 0 mm | - | - | - |
| 1788300748 | 18.33° C | - | 1025.1 hPa | 0 mm | - | - | - |
| 1788300448 | 18.89° C | - | 1023.8 hPa | 0 mm | - | - | - |
| 1788300147 | 18.89° C | - | 1023.1 hPa | 0 mm | - | - | - |
| 1788299847 | 18.33° C | - | 1023.7 hPa | 0 mm | - | - | - |
| 1788299547 | 18.89° C | - | 1024.2 hPa | 0 mm | - | - | - |
| 1788299246 | 18.33° C | - | 1021.3 hPa | 0 mm | - | - | - |
* Rain since midnight (hover to see other rain measurements)
** Current wind speed in m/s (hover to see current wind gust speed)